Tulsa, OK

3:07 AM CDT on March 23, 2017 (GMT -0500)
Tulsa International

Weather History for KTUL - December, 2012

Change the Weather History Date:

Monday, December 10, 2012

  Actual Average Record
Temperature  
Mean Temperature 29 °F 40 °F  
Max Temperature 36 °F 50 °F 74 °F (1996)
Min Temperature 21 °F 30 °F 3 °F (1919)
Degree Days  
Heating Degree Days 36 25  
Month to date heating degree days 133 234  
Since 1 July heating degree days 727 870  
Moisture  
Dew Point 12 °F    
Average Humidity 52    
Maximum Humidity 65    
Minimum Humidity 38    
Precipitation  
Precipitation 0.00 in 0.08 in 1.73 in (1960)
Month to date precipitation 0.06 0.86  
Year to date precipitation 27.95 39.34  
Sea Level Pressure  
Sea Level Pressure 30.14 in    
Wind  
Wind Speed 9 mph (NW)    
Max Wind Speed 21 mph    
Max Gust Speed 26 mph    
Visibility 10 miles    
Events      
T = Trace of Precipitation, MM = Missing Value Source: NWS Daily Summary

Daily Weather History Graph

Daily Weather History Graph

Search for Another Location

Airport or City:

Trip Planner

Search our weather history database for the weather conditions in past years. The results will help you decide how hot, cold, wet, or windy it might be!

Date:

Astronomy

Dec. 10, 2012 Rise Set
Actual Time 7:24 AM CST 5:09 PM CST
Civil Twilight 6:55 AM CST 5:37 PM CST
Nautical Twilight 6:23 AM CST 6:09 PM CST
Astronomical Twilight 5:52 AM CST 6:40 PM CST
Moon 4:12 AM CST (12/10) 2:56 PM CST (12/10)
Length of Visible Light 10h 42m
Length of Day
9h 44m
Waning Crescent, 10% of the Moon is Illuminated
Dec 10
Waning Crescent
Dec 13
New
Dec 19
First Quarter
Dec 28
Full
Jan 4
Last Quarter

Hourly Weather History & Observations

Time (CST) Temp. Windchill Dew Point Humidity Pressure Visibility Wind Dir Wind Speed Gust Speed Precip Events Conditions
12:53 AM 28.9 °F 18.6 °F 14.0 °F 54% 30.12 in 10.0 mi NNW 12.7 mph - N/A   Clear
1:53 AM 28.0 °F 17.0 °F 14.0 °F 56% 30.12 in 10.0 mi NNW 13.8 mph - N/A   Scattered Clouds
2:53 AM 28.0 °F 15.7 °F 12.9 °F 53% 30.12 in 10.0 mi NW 17.3 mph - N/A   Overcast
3:53 AM 27.0 °F 14.7 °F 12.9 °F 56% 30.12 in 10.0 mi NW 16.1 mph - N/A   Overcast
4:53 AM 26.1 °F 14.0 °F 12.9 °F 58% 30.13 in 10.0 mi NW 15.0 mph - N/A   Clear
5:53 AM 25.0 °F 11.7 °F 12.9 °F 60% 30.14 in 10.0 mi NW 17.3 mph 24.2 mph N/A   Clear
6:29 AM 24.8 °F 14.0 °F 14.0 °F 64% 30.17 in 10.0 mi NW 11.5 mph - N/A   Mostly Cloudy
6:50 AM 23.0 °F 9.6 °F 12.2 °F 63% 30.16 in 10.0 mi NNW 16.1 mph 24.2 mph N/A   Scattered Clouds
6:53 AM 23.0 °F 10.6 °F 12.0 °F 63% 30.18 in 10.0 mi NNW 13.8 mph 24.2 mph N/A   Partly Cloudy
7:53 AM 21.9 °F 9.8 °F 10.9 °F 63% 30.19 in 10.0 mi NNW 12.7 mph - N/A   Partly Cloudy
8:53 AM 23.0 °F 11.1 °F 10.0 °F 58% 30.19 in 10.0 mi NW 12.7 mph - N/A   Clear
9:53 AM 24.1 °F 13.7 °F 10.0 °F 55% 30.20 in 10.0 mi NW 10.4 mph - N/A   Clear
10:53 AM 27.0 °F 17.3 °F 12.0 °F 53% 30.20 in 10.0 mi NNW 10.4 mph - N/A   Clear
11:53 AM 30.0 °F 20.5 °F 12.9 °F 49% 30.17 in 10.0 mi WNW 11.5 mph - N/A   Clear
12:53 PM 32.0 °F 25.6 °F 14.0 °F 48% 30.14 in 10.0 mi WNW 6.9 mph - N/A   Clear
1:53 PM 34.0 °F 28.0 °F 15.1 °F 46% 30.12 in 10.0 mi NW 6.9 mph 17.3 mph N/A   Clear
2:53 PM 36.0 °F 29.0 °F 14.0 °F 41% 30.09 in 10.0 mi WNW 9.2 mph - N/A   Clear
3:53 PM 36.0 °F 32.1 °F 12.0 °F 37% 30.09 in 10.0 mi NW 4.6 mph - N/A   Clear
4:53 PM 33.1 °F 30.0 °F 12.0 °F 42% 30.10 in 10.0 mi WNW 3.5 mph - N/A   Clear
5:53 PM 33.1 °F 30.0 °F 10.9 °F 40% 30.11 in 10.0 mi West 3.5 mph - N/A   Clear
6:53 PM 32.0 °F 27.5 °F 10.0 °F 40% 30.11 in 10.0 mi WSW 4.6 mph - N/A   Clear
7:53 PM 30.0 °F - 10.0 °F 43% 30.10 in 10.0 mi Calm Calm - N/A   Clear
8:53 PM 27.0 °F - 10.9 °F 51% 30.12 in 10.0 mi Calm Calm - N/A   Clear
9:53 PM 27.0 °F - 12.0 °F 53% 30.13 in 10.0 mi Calm Calm - N/A   Clear
10:53 PM 26.1 °F 21.9 °F 12.0 °F 55% 30.12 in 10.0 mi SSW 3.5 mph - N/A   Clear
11:53 PM 25.0 °F 19.3 °F 10.9 °F 55% 30.13 in 10.0 mi South 4.6 mph - N/A   Clear